This is the latest recevied weather packets stored in our database for station/object S50ME-11. If no packets are shown the sender has not sent any weather packets the latest 10 day(s).
| Time | Temp. | Humidity | Pressure | Rain* | Wind** | Luminosity | Snow |
|---|---|---|---|---|---|---|---|
| 1777537842 | 21.11° C | 39% | 1031 hPa | - | - | - | - |
| 1777537838 | 21.11° C | 39% | 1031 hPa | - | - | - | - |
| 1777536941 | 20° C | 40% | 1030.6 hPa | - | - | - | - |
| 1777536938 | 20° C | 40% | 1030.6 hPa | - | - | - | - |
| 1777536041 | 18.33° C | 41% | 1030.7 hPa | - | - | - | - |
| 1777536038 | 18.33° C | 41% | 1030.7 hPa | - | - | - | - |
| 1777535141 | 16.67° C | 42% | 1031.9 hPa | - | - | - | - |
| 1777535137 | 16.67° C | 42% | 1031.9 hPa | - | - | - | - |
| 1777534241 | 15.56° C | 42% | 1031.3 hPa | - | - | - | - |
| 1777534237 | 15.56° C | 42% | 1031.3 hPa | - | - | - | - |
| 1777533341 | 14.44° C | 42% | 1031.4 hPa | - | - | - | - |
| 1777533337 | 14.44° C | 42% | 1031.4 hPa | - | - | - | - |
| 1777532441 | 13.33° C | 43% | 1031 hPa | - | - | - | - |
| 1777532436 | 13.33° C | 43% | 1031 hPa | - | - | - | - |
| 1777531541 | 12.22° C | 43% | 1031.1 hPa | - | - | - | - |
| 1777531536 | 12.22° C | 43% | 1031.1 hPa | - | - | - | - |
| 1777530641 | 10.56° C | 43% | 1031.3 hPa | - | - | - | - |
| 1777530636 | 10.56° C | 43% | 1031.3 hPa | - | - | - | - |
| 1777529741 | 8.89° C | 44% | 1031 hPa | - | - | - | - |
| 1777529735 | 8.89° C | 44% | 1031 hPa | - | - | - | - |
| 1777528848 | 7.78° C | 44% | 1030.8 hPa | - | - | - | - |
| 1777528845 | 7.78° C | 44% | 1030.8 hPa | - | - | - | - |
| 1777527948 | 7.22° C | 45% | 1030.6 hPa | - | - | - | - |
| 1777527945 | 7.22° C | 45% | 1030.6 hPa | - | - | - | - |
| 1777527049 | 6.11° C | 45% | 1030.8 hPa | - | - | - | - |
* Rain since midnight (hover to see other rain measurements)
** Current wind speed in m/s (hover to see current wind gust speed)